Regional Weather Roundup
Issued by NWS

Home | Current Version | Previous Version | Text Only | Print | Product List | Glossary On
Versions: 1 2 3 4 5 6 7 8 9 10 11 12 13 14 15 16 17 18 19 20 21 22 23 24 25 26 27 28 29 30 31 32 33 34 35 36 37 38 39 40 41 42 43 44 45 46 47 48 49 50
000
ASUS43 KOAX 231110
RWRNE

WEATHER ROUNDUP FOR NEBRASKA
NATIONAL WEATHER SERVICE OMAHA NE
600 AM CDT THU MAR 23 2017

NOTES: SATELLITE DATA IS BEING USED TO AUGMENT CLOUD COVER ABOVE
       12000 FEET.
       "FAIR" INDICATES FEW OR NO CLOUDS BELOW 12,000 FEET WITH NO
       SIGNIFICANT WEATHER AND/OR OBSTRUCTIONS TO VISIBILITY.

  * THESE STATIONS DO NOT REPORT WEATHER SUCH AS RAIN...SNOW OR FOG.

NEZ001>004-019>022-054>056-231200-
NEBRASKA PANHANDLE

CITY           SKY/WX    TMP DP  RH WIND       PRES   REMARKS
SCOTTSBLUFF    CLOUDY    41  33  73 E12       29.70F
ALLIANCE       CLOUDY    39  34  82 S14       29.71F WCI  31
CHADRON        PTCLDY    46  35  65 S13       29.68F
KIMBALL        CLOUDY    35  35  99 NW3       29.70S
SIDNEY         CLOUDY    33  31  92 SE5       29.70F WCI  29
$$

NEZ057>060-069>072-079>082-231200-
SOUTHWEST NEBRASKA

CITY           SKY/WX    TMP DP  RH WIND       PRES   REMARKS
NORTH PLATTE   CLOUDY    45  36  70 SE13G22   29.78F
IMPERIAL       CLOUDY    42  39  89 SE9       29.73F
LEXINGTON      CLOUDY    47  38  70 SE18      29.83S
MCCOOK         CLOUDY    44  39  82 SE7       29.79F
OGALLALA       CLOUDY    39  36  88 E5        29.74F
$$

NEZ005>010-023>029-035>040-094-231200-
NORTH CENTRAL NEBRASKA

CITY           SKY/WX    TMP DP  RH WIND       PRES   REMARKS
VALENTINE      CLOUDY    44  34  67 S16       29.75F
AINSWORTH      CLOUDY    43  33  68 S20       29.76F
BROKEN BOW     CLOUDY    44  32  62 SE14G25   29.82F
O`NEILL        CLOUDY    46  31  56 S17G23    29.84F
ORD            CLOUDY    46  28  49 SE15      29.85F
THEDFORD       CLOUDY    44  36  71 S17G24    29.77F
$$

NEZ041-046>049-061>064-073>077-083>087-231200-
SOUTH CENTRAL NEBRASKA

CITY           SKY/WX    TMP DP  RH WIND       PRES   REMARKS
GRAND ISLAND   CLOUDY    47  33  58 SE16G24   29.90F
AURORA         CLOUDY    48  32  54 SE17G23   29.91F
HASTINGS       CLOUDY    48  32  53 SE14      29.89F
HEBRON         CLOUDY    50  38  63 SE16      29.94F
HOLDREGE       CLOUDY    48  38  68 SE18G24   29.83F
KEARNEY *      CLOUDY    46  32  57 SE17      29.86F
YORK           CLOUDY    48  32  53 SE16G22   29.93F
$$

NEZ011>018-030>034-042>045-231200-
NORTHEAST NEBRASKA

CITY           SKY/WX    TMP DP  RH WIND       PRES   REMARKS
NORFOLK        CLOUDY    43  26  51 SE14      29.93F
ALBION         MOCLDY    46  28  48 SE13      29.90F
BLAIR          CLOUDY    44  24  46 SE12      30.01F
FREMONT        CLOUDY    44  26  48 SE14      29.99F
TEKAMAH        PTCLDY    42  22  44 SE12      30.02F
WAYNE          CLOUDY    40  28  61 SE15      29.96F WCI  32
$$

NEZ050>053-065>068-078-088>093-231200-
SOUTHEAST NEBRASKA

CITY           SKY/WX    TMP DP  RH WIND       PRES   REMARKS
LINCOLN        CLOUDY    49  31  49 SE13      30.00F
OMAHA EPPLEY   CLOUDY    45  21  38 SE15      30.04F
BEATRICE       CLOUDY    51  38  61 S13G20    29.98F
FALLS CITY     LGT RAIN  50  32  50 SE15      30.05R
NEBRASKA CITY  CLOUDY    48  22  36 SE10G16   30.03F
PLATTSMOUTH    MOCLDY    45  19  35 SE12      30.03F
$$

NEZ044-045-051>053-067-231200-
OMAHA AREA

CITY           SKY/WX    TMP DP  RH WIND       PRES   REMARKS
OMAHA EPPLEY   CLOUDY    45  21  38 SE15      30.04F
BLAIR          CLOUDY    44  24  46 SE12      30.01F
FREMONT        CLOUDY    44  26  48 SE14      29.99F
MILLARD        CLOUDY    47  26  43 SE8       30.02F
OFFUTT AFB     CLOUDY    45  21  38 E13       30.03F
PLATTSMOUTH    MOCLDY    45  19  35 SE12      30.03F
WAHOO          FAIR      44  26  49 SE10      29.99F
$$



USA.gov is the U.S. government's official web portal to all federal, state and local government web resources and services.